{"data":{"norad_id":58536,"epoch":"2026-05-25T04:31:52.667328Z","epoch_age_seconds":69405,"freshness":"FRESH","line1":"1 58536U 23192F   26145.18880402 -.00001149  00000+0 -22869-4 0  9990","line2":"2 58536  53.1621  67.0114 0001216  85.5875 274.5266 15.34401245137703","mean_motion":15.34401245,"eccentricity":0.0001216,"inclination_deg":53.1621,"raan_deg":67.0114,"arg_perigee_deg":85.5875,"mean_anomaly_deg":274.5266,"bstar":-2.2869e-5,"rev_number":13770,"period_min":93.847681934069,"perigee_km":461.867694084,"apogee_km":463.53138553048,"semimajor_km":6840.8365398072,"source":"CELESTRAK","updated_at":"2026-05-25T13:38:18.661152Z"}}